This demonstration page uses our WeatherBlox Daily Observations layout. Learn more.

Left ArrowRight Arrow

39.92423, -83.80882

Hourly Observations for January 30, 2021

Temp ( °F °C ) Dew Point ( °F °C ) Humidity (%) Winds ( mph kmh ) Pressure ( in mb ) Visibility ( mi km ) Precip ( " mm )
12:56 am 00:56 Clear 20 -6.7 18 -7.8 92 92 E 3 6 30.37 1028 10 16.0934 0 0
1:56 am 01:56 Clear 19 -7.2 18 -7.8 96 96 E 3 6 30.37 1028 10 16.0934 0 0
2:56 am 02:56 Clear 16 -8.9 15 -9.4 96 96 E 6 9 30.35 1028 10 16.0934 0 0
3:56 am 03:56 Clear 18 -7.8 16 -8.9 92 92 E 7 11 30.34 1028 10 16.0934 0 0
4:56 am 04:56 Clear 20 -6.7 16 -8.9 85 85 ESE 8 13 30.33 1027 10 16.0934 0 0
5:56 am 05:56 Clear 19 -7.2 17 -8.3 92 92 ESE 5 7 30.34 1028 10 16.0934 0 0
6:56 am 06:56 Clear 21 -6.1 19 -7.2 92 92 E 7 11 30.35 1028 10 16.0934 0 0
7:56 am 07:56 Sunny 21 -6.1 18 -7.8 88 88 E 9 15 30.35 1028 10 16.0934 0 0
8:56 am 08:56 Sunny 23 -5 19 -7.2 85 85 ESE 12 19 30.33 1027 10 16.0934 0 0
9:56 am 09:56 Mostly Cloudy 25 -3.9 20 -6.7 81 81 ESE 14 22 30.3 1026 10 16.0934 0 0
10:56 am 10:56 Cloudy 27 -2.8 21 -6.1 78 78 ESE 15 24 30.29 1026 10 16.0934 0 0
11:56 am 11:56 Mostly Cloudy 29 -1.7 20 -6.7 69 69 ESE 20 31 30.27 1025 10 16.0934 0 0
12:56 pm 12:56 Cloudy 31 -0.6 20 -6.7 64 64 SE 12 19 30.28 1025 10 16.0934 0 0
1:56 pm 13:56 Cloudy 32 0 20 -6.7 61 61 ESE 16 26 30.23 1024 10 16.0934 0 0
2:56 pm 14:56 Cloudy 32 0 21 -6.1 64 64 E 13 20 30.19 1023 10 16.0934 0 0
3:56 pm 15:56 Cloudy 34 1.1 20 -6.7 56 56 ESE 15 24 30.18 1022 10 16.0934 0 0
4:56 pm 16:56 Cloudy 32 0 19 -7.2 59 59 ESE 17 28 30.16 1021 10 16.0934 0 0
5:56 pm 17:56 Cloudy 32 0 21 -6.1 64 64 ESE 15 24 30.16 1021 10 16.0934 0 0
6:56 pm 18:56 Cloudy 32 0 20 -6.7 61 61 ESE 15 24 30.14 1021 10 16.0934 0 0
7:56 pm 19:56 Cloudy 32 0 20 -6.7 61 61 SE 14 22 30.13 1020 10 16.0934 0 0
8:56 pm 20:56 Cloudy with Light Snow 32 0 22 -5.6 66 66 SE 12 19 30.12 1020 9 14.48406 0.001 0.001
9:03 pm 21:03 Cloudy with Light Snow 30 -1 23 -5 75 75 SE 17 28 30.13 1020 2.5 4.02335 0.001 0.001
9:14 pm 21:14 Cloudy with Light Snow 28 -2 27 -3 93 93 SE 15 24 30.13 1020 1.5 2.41401 0.001 0.001
9:41 pm 21:41 Cloudy with Light Snow 28 -2 28 -2 100 100 SE 15 24 30.13 1020 1 1.60934 0.001 0.001
9:44 pm 21:44 Cloudy with Light Snow 28 -2 28 -2 100 100 ESE 12 19 30.12 1020 0.75 1.207005 0.001 0.001
9:56 pm 21:56 Cloudy with Light Snow 28 -2.2 28 -2.2 100 100 ESE 14 22 30.1 1019 1 1.60934 0.001 0.001
10:03 pm 22:03 Cloudy with Light Snow 28 -2 28 -2 100 100 ESE 14 22 30.11 1020 1.25 2.011675 0.001 0.001
10:19 pm 22:19 Cloudy with Light Snow 28 -2 28 -2 100 100 ESE 16 26 30.1 1019 0.75 1.207005 0.001 0.001
10:28 pm 22:28 Cloudy with Snow 28 -2 28 -2 100 100 ESE 14 22 30.1 1019 0.5 0.80467 0.001 0.001
10:30 pm 22:30 Cloudy with Light Snow 28 -2 28 -2 100 100 ESE 17 28 30.09 1019 0.75 1.207005 0.001 0.001
10:41 pm 22:41 Windy with Snow Likely 28 -2 28 -2 100 100 ESE 20 31 30.07 1018 1 1.60934 0.001 0.001
10:44 pm 22:44 Windy with Snow Likely 28 -2 28 -2 100 100 ESE 21 33 30.07 1018 2 3.21868 0.001 0.001
10:48 pm 22:48 Windy with Snow Likely 28 -2 28 -2 100 100 ESE 20 31 30.06 1018 5 8.0467 0.001 0.001
10:56 pm 22:56 Windy with Snow Likely 28 -2.2 28 -2.2 100 100 ESE 22 35 30.04 1017 8 12.87472 0.001 0.001
11:11 pm 23:11 Cloudy with Light Snow 28 -2 28 -2 100 100 ESE 16 26 30.05 1018 1.75 2.816345 0.001 0.001
11:19 pm 23:19 Cloudy with Light Snow 28 -2 28 -2 100 100 ESE 18 30 30.04 1017 0.75 1.207005 0.001 0.001
11:21 pm 23:21 Cloudy with Snow 28 -2 28 -2 100 100 ESE 18 30 30.04 1017 0.5 0.80467 0.001 0.001
11:37 pm 23:37 Cloudy with Light Snow 28 -2 28 -2 100 100 E 18 30 30.02 1017 1 1.60934 0.001 0.001
11:56 pm 23:56 Cloudy with Light Snow 28 -2.2 28 -2.2 100 100 E 17 28 30 1016 1.25 2.011675 0.001 0.001

Powered by AerisWeather